Lake Charles, LA

6:08 AM CDT on August 18, 2017 (GMT -0500)
Chennault International

Weather History for KCWF - November, 2012

Change the Weather History Date:

Saturday, November 3, 2012

  Actual Average Record
Temperature  
Mean Temperature 58 °F -  
Max Temperature 84 °F 74 °F 91 °F (2011)
Min Temperature 32 °F 57 °F 32 °F (2012)
Degree Days  
Heating Degree Days 7    
Growing Degree Days 8 (Base 50)    
Moisture  
Dew Point 60 °F    
Average Humidity 83    
Maximum Humidity 100    
Minimum Humidity 23    
Precipitation  
Precipitation 0.01 in - - ()
Sea Level Pressure  
Sea Level Pressure 30.07 in    
Wind  
Wind Speed 2 mph (South)    
Max Wind Speed 13 mph    
Max Gust Speed 18 mph    
Visibility 4 miles    
Events Fog    
Averages and records for this station are not official NWS values.
T = Trace of Precipitation, MM = Missing Value Source: NWS Daily Summary

Daily Weather History Graph

Daily Weather History Graph

Search for Another Location

Airport or City:

Trip Planner

Search our weather history database for the weather conditions in past years. The results will help you decide how hot, cold, wet, or windy it might be!

Date:

Astronomy

Nov. 03, 2012 Rise Set
Actual Time 7:28 AM CDT 6:23 PM CDT
Civil Twilight 7:03 AM CDT 6:48 PM CDT
Nautical Twilight 6:35 AM CDT 7:16 PM CDT
Astronomical Twilight 6:07 AM CDT 7:44 PM CDT
Moon 10:11 PM CDT (11/3) 11:26 AM CDT (11/3)
Length of Visible Light 11h 44m
Length of Day
10h 54m
Waning Gibbous, 80% of the Moon is Illuminated
Nov 3
Waning Gibbous
Nov 6
Last Quarter
Nov 13
New
Nov 20
First Quarter
Nov 28
Full

Hourly Weather History & Observations

Time (CDT) Temp. Heat Index Dew Point Humidity Pressure Visibility Wind Dir Wind Speed Gust Speed Precip Events Conditions
12:15 AM 61.9 °F - 60.3 °F 94% 30.06 in 0.2 mi SSE 3.5 mph - N/A Fog Fog
12:35 AM 61.0 °F - 59.2 °F 94% 30.07 in 0.2 mi SSE 4.6 mph - N/A Fog Fog
12:55 AM 61.7 °F - 60.3 °F 95% 30.06 in 0.2 mi SSE 3.5 mph - N/A Fog Fog
1:15 AM 61.9 °F - 60.4 °F 95% 30.06 in 0.2 mi SSE 3.5 mph - N/A Fog Fog
1:35 AM 61.7 °F - 60.1 °F 94% 30.05 in 0.2 mi SSE 3.5 mph - N/A Fog Fog
1:55 AM 62.1 °F - 60.8 °F 96% 30.06 in 0.5 mi Calm Calm - N/A Fog Fog
2:15 AM 62.2 °F - 60.8 °F 95% 30.05 in 0.2 mi Calm Calm - N/A Fog Fog
2:35 AM 62.6 °F - 61.2 °F 95% 30.05 in 0.2 mi Calm Calm - N/A Fog Fog
2:55 AM 63.0 °F - 61.5 °F 95% 30.05 in 0.2 mi Calm Calm - N/A Fog Fog
3:15 AM 63.1 °F - 61.7 °F 95% 30.05 in 0.2 mi Calm Calm - N/A Fog Fog
3:35 AM 62.6 °F - 61.0 °F 94% 30.05 in 0.2 mi Calm Calm - N/A Fog Fog
3:55 AM 62.8 °F - 61.3 °F 95% 30.05 in 0.2 mi Calm Calm - N/A Fog Fog
4:15 AM 63.1 °F - 61.7 °F 95% 30.06 in 0.2 mi Calm Calm - N/A Fog Fog
4:35 AM 63.5 °F - 61.9 °F 94% 30.06 in 0.2 mi Calm Calm - N/A Fog Fog
4:55 AM 63.5 °F - 61.9 °F 94% 30.06 in 0.2 mi Calm Calm - 0.01 in Fog Fog
5:15 AM 62.8 °F - 61.3 °F 95% 30.06 in 0.2 mi Calm Calm - N/A Fog Fog
5:35 AM 63.1 °F - 61.7 °F 95% 30.07 in 0.2 mi Calm Calm - N/A Fog Fog
5:55 AM 62.8 °F - 61.5 °F 96% 30.07 in 0.2 mi Calm Calm - N/A Fog Fog
6:00 AM 62.6 °F - 62.6 °F 100% 30.07 in 0.2 mi Calm Calm - N/A Fog Fog
6:50 AM 64.4 °F - 62.6 °F 94% 30.08 in 0.2 mi Calm Calm - N/A Fog Fog
7:50 AM 62.6 °F - 62.6 °F 100% 30.10 in 0.2 mi Calm Calm - N/A Fog Fog
8:50 AM 64.4 °F - 64.4 °F 100% 30.12 in 0.5 mi Calm Calm - N/A Fog Fog
9:28 AM 32.0 °F - -2.2 °F 23% 30.13 in 1.0 mi Calm Calm - N/A   Mist
9:50 AM 69.8 °F - 66.2 °F 88% 30.13 in 3.0 mi Calm Calm - N/A   Scattered Clouds
10:50 AM 75.2 °F - 69.8 °F 83% 30.14 in 10.0 mi Calm Calm - N/A   Scattered Clouds
11:59 AM 78.8 °F - 64.4 °F 61% 30.13 in 10.0 mi SW 4.6 mph - N/A   Clear
12:47 PM 80.6 °F 81.8 °F 62.6 °F 54% 30.11 in 10.0 mi WSW 8.1 mph - N/A   Scattered Clouds
1:50 PM 82.4 °F 82.9 °F 60.8 °F 48% 30.07 in 10.0 mi South 11.5 mph - N/A   Mostly Cloudy
2:50 PM 84.2 °F 84.4 °F 60.8 °F 45% 30.05 in 10.0 mi SSW 10.4 mph 16.1 mph N/A   Scattered Clouds
3:50 PM 82.4 °F 82.9 °F 60.8 °F 48% 30.04 in 10.0 mi South 11.5 mph 18.4 mph N/A   Scattered Clouds
4:45 PM 82.4 °F 82.9 °F 60.8 °F 48% 30.05 in 10.0 mi SSW 12.7 mph 18.4 mph N/A   Scattered Clouds
5:50 PM 77.0 °F - 64.4 °F 65% 30.06 in 10.0 mi South 6.9 mph - N/A   Scattered Clouds
6:50 PM 73.4 °F - 64.4 °F 73% 30.07 in 10.0 mi SSE 5.8 mph - N/A   Clear
7:55 PM 66.2 °F - 60.8 °F 83% 30.09 in 10.0 mi SSE 3.5 mph - N/A   Clear
8:50 PM 66.2 °F - 60.8 °F 83% 30.04 in 10.0 mi Calm Calm - N/A   Clear
9:45 PM 69.8 °F - 62.6 °F 78% 30.09 in 10.0 mi Calm Calm - N/A   Clear
10:15 PM 65.5 °F - 60.8 °F 85% 30.10 in 10.0 mi Calm Calm - N/A   Clear
10:35 PM 66.7 °F - 61.2 °F 82% 30.09 in 10.0 mi Calm Calm - N/A   Clear
10:55 PM 66.6 °F - 61.3 °F 83% 30.09 in 10.0 mi Calm Calm - N/A   Clear
11:15 PM 65.1 °F - 60.8 °F 86% 30.09 in 10.0 mi East 3.5 mph - N/A   Clear
11:35 PM 64.6 °F - 61.2 °F 89% 30.09 in 10.0 mi Calm Calm - N/A   Clear
11:55 PM 64.9 °F - 61.3 °F 88% 30.08 in 10.0 mi SE 3.5 mph - N/A   Clear